Theta_e
338 338 337 338 339 339 339 338 338 337 336 337 338 336 335 333 332 334 336 337 335 334 334 335 334 333 333 331 333 336 337 337 338 336 334 335 333 333 334 334 334 334 334 334 335 338 345 349 344 338 337 334 334 336 336 338 339 338 337 339 340 340 340
337 337 337 337 339 340 339 339 339 338 336 336 337 337 336 335 334 334 337 337 336 334 334 334 334 334 334 332 331 335 336 336 337 336 335 334 333 333 334 334 335 335 335 333 333 334 341 345 345 344 341 336 336 335 334 338 340 340 338 339 339 338 339
337 337 337 337 337 338 338 339 339 339 337 337 337 337 337 337 335 334 336 338 338 337 336 335 334 334 334 334 333 334 335 335 335 335 335 334 333 333 333 334 335 336 337 336 337 337 337 339 342 345 341 338 340 337 334 336 339 340 340 339 338 336 337
338 338 337 337 337 337 337 338 339 339 338 338 337 337 337 337 337 335 335 337 339 340 338 336 335 334 334 334 335 335 334 335 336 334 334 334 334 333 332 333 334 335 337 337 338 338 337 338 342 345 339 336 338 335 333 336 338 340 340 338 336 336 337
338 338 338 337 337 336 336 338 338 339 339 338 338 338 338 337 337 337 336 336 337 339 340 338 337 337 336 335 335 335 336 337 336 335 334 334 333 332 332 334 334 335 335 336 336 336 337 338 340 343 338 336 338 335 333 336 337 339 340 337 335 335 337
337 338 338 337 336 337 336 337 338 338 338 338 338 338 338 337 337 337 337 337 336 337 339 339 338 338 338 337 336 335 336 336 336 335 334 331 332 332 332 334 335 334 335 335 335 335 337 337 338 341 338 335 338 336 336 338 337 337 338 336 335 335 336
336 337 337 337 336 337 336 337 337 337 337 337 338 338 338 337 337 337 337 337 336 336 337 338 339 339 338 338 336 335 335 334 334 335 333 328 330 331 332 334 335 335 334 335 335 335 338 338 339 340 339 337 337 336 338 338 335 335 336 335 334 335 336
336 336 337 336 336 337 337 337 337 337 337 337 337 337 337 337 336 336 336 336 336 336 336 337 338 338 338 339 338 336 334 333 333 335 334 330 329 331 332 334 335 335 335 335 335 336 337 339 339 338 339 342 342 340 340 337 334 335 336 336 335 335 337
334 335 335 335 336 336 337 337 336 336 337 337 337 337 337 338 336 335 335 335 335 336 335 336 336 335 337 339 338 336 334 333 333 334 334 332 330 331 332 334 335 335 335 335 335 335 336 338 339 339 339 341 344 345 343 340 338 338 337 336 336 337 336
332 332 333 333 334 335 335 336 336 336 336 337 337 337 337 337 336 335 335 334 334 335 335 335 335 334 336 338 338 337 334 332 333 334 334 331 330 331 332 334 336 335 335 335 334 335 335 337 339 340 340 339 341 344 345 343 342 340 336 335 336 336 336
330 331 331 331 331 332 333 333 334 334 335 336 336 336 336 337 337 336 335 335 335 335 334 335 336 335 335 336 336 336 334 331 332 333 334 332 330 332 332 334 336 336 335 335 335 335 335 337 339 340 341 340 340 341 343 344 344 340 335 334 335 335 335
330 330 330 331 331 332 332 332 333 333 333 333 334 335 336 336 337 336 336 336 335 335 335 335 336 335 335 335 336 336 335 334 332 332 333 333 331 332 332 333 335 336 336 336 335 335 335 338 340 341 341 340 340 340 340 342 344 340 336 336 336 335 335
329 329 330 331 331 332 332 332 332 332 333 333 333 334 334 335 335 335 335 335 335 335 334 334 335 335 335 336 336 336 336 335 333 331 332 333 332 332 332 333 334 335 336 336 335 335 337 339 341 341 341 340 340 340 340 341 342 341 339 338 338 337 337
328 329 329 330 331 331 331 331 331 331 332 332 332 333 333 333 334 334 334 334 334 334 334 334 334 334 334 335 336 336 336 336 335 332 332 333 332 332 332 333 335 335 336 336 335 335 337 340 341 341 341 340 339 340 341 341 341 340 338 338 338 337 336
327 327 327 328 329 329 329 330 330 330 331 331 332 332 332 332 333 333 333 333 333 334 334 334 334 334 334 334 335 336 336 337 336 334 332 332 332 332 332 333 334 335 335 335 334 335 339 341 341 341 340 339 339 340 340 339 339 338 336 335 335 335 335
325 326 326 327 328 328 328 329 329 329 330 330 330 331 331 332 332 332 333 332 333 333 334 334 334 334 333 333 334 335 336 336 336 335 333 331 332 332 332 332 333 333 334 334 334 335 340 341 341 341 339 337 336 338 339 339 337 335 334 335 336 335 334
324 324 324 325 326 326 327 327 328 328 328 329 329 329 329 330 330 331 332 332 333 333 333 333 333 333 333 333 333 333 334 335 335 335 334 333 333 332 331 332 333 333 333 333 333 335 340 341 340 340 340 337 337 338 339 339 337 336 336 337 336 334 334
322 323 323 324 324 325 326 326 326 327 327 327 327 327 327 327 328 329 329 330 331 332 332 332 332 332 332 333 333 333 333 334 334 334 334 334 333 333 332 331 332 332 332 334 335 337 341 341 338 339 340 338 338 338 338 338 337 337 337 336 335 333 333
321 322 322 323 323 324 325 325 325 326 326 325 325 325 325 325 325 326 326 327 328 329 330 331 332 332 331 332 332 332 333 334 334 334 334 334 333 333 332 331 331 332 332 334 336 336 337 337 336 337 339 338 337 338 338 337 337 336 336 335 333 332 332
321 322 322 323 323 324 324 324 324 324 324 324 323 323 323 323 323 324 324 324 324 324 326 328 330 331 331 332 331 331 332 332 333 334 334 334 333 333 332 332 332 332 332 332 334 333 332 332 335 337 337 337 336 336 336 336 335 335 334 333 332 332 332
321 321 322 322 323 323 323 323 323 323 323 322 322 322 322 322 322 322 322 321 320 320 321 323 326 329 330 331 332 332 331 329 330 332 333 333 333 332 333 333 332 332 332 332 332 333 333 334 334 336 337 336 336 336 335 334 333 332 332 332 331 332 332
320 321 321 321 321 321 321 321 321 321 321 321 321 321 320 320 320 320 319 318 317 317 317 318 320 323 325 328 330 332 332 331 331 332 332 333 333 332 332 332 332 333 333 332 332 334 336 336 335 335 337 336 335 335 334 333 332 331 331 332 332 332 330
319 320 320 320 320 320 320 320 319 319 319 320 320 320 319 319 319 319 318 316 315 314 315 315 317 319 321 323 326 329 331 332 333 334 333 333 333 331 330 331 332 332 333 334 335 336 337 338 337 336 336 335 334 334 333 332 332 331 331 331 331 331 329
318 318 318 318 318 318 318 317 317 317 317 319 320 319 318 318 318 317 317 316 314 314 314 315 316 318 320 322 323 326 328 331 333 334 332 333 332 330 330 331 332 332 332 334 336 336 336 336 336 335 335 334 334 334 332 331 332 331 331 330 328 327 327
317 317 317 316 316 316 315 315 315 315 315 317 318 318 318 318 318 317 316 315 314 313 314 315 316 317 319 321 322 325 326 329 332 332 331 332 331 329 329 330 330 331 333 334 334 334 334 333 332 331 330 329 329 330 329 329 329 329 329 328 326 324 324
316 316 316 315 315 315 314 314 313 314 315 316 317 317 318 318 317 315 315 315 314 313 313 314 315 316 318 320 322 324 325 327 330 331 332 332 330 328 328 327 326 328 330 332 332 332 332 329 326 324 324 324 324 324 324 325 325 326 326 326 324 322 321
315 315 315 314 314 313 313 313 313 313 314 315 315 317 317 317 316 314 314 314 313 312 312 313 314 315 317 319 321 324 326 327 329 331 332 330 328 327 326 325 325 326 326 327 328 327 325 324 322 321 321 321 320 320 321 322 322 323 323 324 323 321 320
314 314 313 313 313 313 313 313 313 313 314 314 316 316 315 315 315 314 313 313 312 311 312 313 313 314 316 318 320 323 325 326 327 329 329 327 326 325 325 325 325 324 322 322 321 321 321 322 321 321 320 319 318 318 319 320 320 321 322 322 321 319 318
314 313 313 312 312 312 312 313 313 313 313 313 316 315 314 314 314 313 312 311 310 310 311 312 313 314 315 316 318 320 322 322 323 325 325 324 323 323 324 323 321 321 320 319 320 321 322 322 321 320 319 317 317 317 316 317 318 319 319 318 317 315 312
313 313 312 312 312 312 312 312 312 312 312 313 315 315 314 313 313 312 312 310 309 309 310 311 313 313 314 315 316 317 318 318 319 319 320 321 321 321 322 321 320 319 319 320 321 321 322 321 319 318 316 314 314 313 311 311 313 313 313 312 311 310 308
313 313 312 312 311 312 312 311 311 311 312 313 315 314 313 313 312 312 311 309 308 308 309 310 312 313 314 315 315 315 316 316 316 316 317 318 319 319 320 320 320 319 319 321 321 321 320 319 317 315 313 312 311 309 307 308 309 309 308 307 307 305 303
313 312 312 311 311 311 311 311 311 311 311 312 314 313 312 312 312 311 311 309 307 306 307 309 311 313 313 314 314 314 314 315 315 316 316 316 317 317 317 318 319 319 320 320 320 320 319 318 316 314 312 311 309 307 306 307 306 305 303 302 301 300 299
312 312 312 311 311 311 310 310 311 311 311 312 313 313 312 312 311 311 311 310 307 306 306 308 310 312 313 313 313 313 313 314 314 315 315 315 315 315 315 315 317 318 319 319 319 319 318 317 316 314 313 311 309 307 306 306 306 305 305 304 302 301 302
312 312 311 311 311 311 310 310 311 311 311 312 313 313 312 311 311 311 310 309 307 306 306 306 308 311 312 312 313 313 313 313 313 314 314 313 313 313 314 314 315 316 318 318 318 319 318 316 315 315 313 312 311 310 310 310 311 310 308 306 305 304 305
312 312 311 311 310 311 311 311 310 311 312 312 312 313 311 311 311 311 310 309 307 305 305 306 307 309 311 311 312 313 313 313 313 313 313 312 311 311 312 313 313 314 316 317 317 318 318 317 316 316 315 313 313 313 313 312 310 308 306 306 306 306 306
311 310 311 311 310 310 311 311 310 310 312 313 312 312 311 311 311 311 310 309 308 306 306 305 306 309 311 311 312 313 313 313 313 314 314 312 310 310 311 312 312 313 314 316 316 317 317 316 316 315 314 313 313 312 311 309 307 306 306 307 307 306 306
311 310 310 310 310 310 311 311 311 311 311 311 311 312 311 311 311 311 310 309 308 307 306 305 306 308 310 311 312 312 312 313 314 315 314 312 310 310 310 311 311 312 313 314 315 316 315 315 314 313 313 312 311 310 309 308 307 307 307 307 306 306 305
Wind_Speed
7 7 7 8 9 11 11 13 15 15 15 14 14 14 14 13 14 15 16 15 17 18 18 17 16 13 13 11 10 12 14 15 15 15 15 13 12 13 12 12 11 9 10 10 9 5 1 1 4 6 8 8 9 10 9 8 8 8 8 10 10 9 10
7 7 7 7 9 10 10 11 13 14 16 16 15 15 15 14 14 14 15 16 16 18 19 19 18 16 14 14 14 14 15 17 17 16 16 16 15 15 15 15 11 10 12 11 10 8 2 1 3 3 4 6 8 10 10 10 8 6 6 8 8 6 6
6 6 7 7 8 10 12 12 13 14 15 16 16 16 15 15 16 15 15 16 15 16 18 20 20 18 16 16 16 16 16 18 19 17 17 18 18 17 17 17 14 12 10 7 7 5 2 4 5 2 3 5 5 8 10 10 9 6 6 6 5 4 3
7 7 8 9 9 10 12 13 13 13 14 15 15 15 16 16 17 16 15 16 16 15 16 18 20 19 17 17 18 17 18 19 19 19 19 20 19 19 18 19 17 12 9 6 5 5 6 7 5 2 5 6 5 8 8 6 8 6 6 5 5 3 3
7 7 8 10 10 10 11 12 12 12 13 14 15 15 16 16 17 18 17 16 16 16 16 17 18 18 17 18 19 19 18 19 20 20 20 20 20 20 18 19 17 13 11 9 8 8 8 9 7 3 6 6 4 8 8 6 6 5 4 4 5 5 5
7 8 9 10 10 10 11 11 11 11 12 13 14 16 16 15 16 18 18 17 16 17 18 18 18 17 16 17 20 21 20 20 21 22 22 22 22 21 18 19 18 14 13 11 9 10 10 9 7 5 7 9 5 7 7 6 7 6 4 4 3 5 7
6 7 8 9 10 11 11 11 11 11 13 13 13 15 16 15 15 15 17 19 18 18 18 19 19 17 17 17 19 22 23 21 22 23 24 24 23 22 19 20 19 16 15 14 12 11 10 9 9 8 7 8 9 7 5 5 7 6 4 3 2 6 8
6 6 7 8 9 10 11 11 12 11 12 13 13 14 15 16 16 15 17 18 19 19 19 18 19 19 19 19 19 21 24 24 23 25 26 25 25 24 21 21 22 18 16 15 13 12 11 11 12 11 7 3 5 6 4 4 6 7 5 3 3 6 6
5 6 6 7 8 9 10 11 12 12 12 12 12 12 14 15 16 16 17 18 19 20 21 20 20 21 21 20 19 20 23 25 24 25 27 27 27 26 23 22 24 22 18 16 14 13 13 13 12 11 9 7 4 3 3 3 4 6 7 6 5 6 6
5 6 6 7 8 9 10 11 11 12 12 12 12 12 13 15 16 17 17 18 19 20 23 24 23 23 23 22 21 20 22 24 26 28 28 28 28 27 25 24 25 24 21 18 16 15 14 14 14 12 11 10 8 3 2 2 3 4 7 9 7 7 7
5 6 6 7 8 9 10 11 12 12 12 12 13 13 14 14 16 17 17 18 18 20 23 25 25 25 25 24 23 22 22 25 29 31 30 30 29 28 25 25 26 26 23 20 18 17 16 15 14 14 13 12 10 7 3 1 2 5 8 10 8 8 7
5 5 6 6 7 7 8 10 11 12 12 13 14 14 14 14 16 17 18 19 19 19 20 23 24 25 26 26 25 24 24 26 32 34 33 31 30 29 26 25 27 26 24 22 20 18 17 17 16 15 14 13 11 9 6 3 1 5 10 9 8 7 5
5 5 5 6 6 7 8 9 10 11 10 11 12 13 14 16 16 17 17 18 19 18 19 21 22 23 25 27 27 27 26 27 32 36 35 33 31 30 26 25 28 27 25 23 22 20 18 17 17 16 15 14 12 10 8 6 4 5 9 8 5 5 4
6 6 6 6 7 7 8 8 8 10 10 9 10 11 13 14 15 16 17 18 18 17 18 20 21 22 23 25 27 28 26 27 32 36 35 32 31 30 27 26 28 27 25 24 22 21 19 18 17 17 15 14 12 11 10 9 6 3 3 2 0 3 3
6 6 6 7 8 7 7 7 7 8 9 10 10 10 11 13 14 14 15 17 17 17 18 19 19 20 22 24 27 28 26 27 32 34 34 33 32 30 27 28 30 28 26 25 24 21 20 19 18 17 16 14 12 12 10 8 5 1 1 2 3 2 1
6 7 7 8 8 8 7 7 7 7 7 8 10 10 10 12 13 13 14 16 16 17 19 18 19 21 23 24 27 29 29 29 31 32 32 33 33 31 29 29 30 29 27 25 25 23 21 20 20 18 17 14 12 10 8 7 5 2 2 1 1 2 2
6 7 8 8 8 8 8 8 7 7 7 7 8 8 9 11 12 12 14 15 15 16 17 16 16 18 21 23 26 30 31 29 30 31 31 31 31 30 30 30 30 29 28 26 26 24 22 21 20 18 15 14 12 9 6 7 7 6 5 4 3 2 0
7 8 8 9 9 8 8 8 8 7 7 7 7 8 9 10 11 12 13 14 15 15 15 15 13 13 17 22 25 27 29 29 30 32 32 32 30 29 29 28 28 29 27 24 23 25 24 22 20 18 15 15 14 10 8 9 8 6 5 4 3 1 1
8 8 8 9 8 8 7 7 7 7 7 7 7 8 9 10 11 12 13 13 13 14 14 13 13 11 13 20 24 25 27 30 32 32 33 32 31 31 29 26 25 25 22 17 13 14 16 16 17 17 16 15 14 10 9 10 8 7 7 7 6 3 2
8 8 8 8 8 7 6 6 6 6 7 8 8 8 9 11 12 12 12 12 13 14 14 13 12 11 10 14 20 24 26 28 30 32 34 32 29 29 30 27 24 21 20 20 14 10 10 12 12 14 16 15 13 10 9 9 8 7 7 6 6 4 5
6 7 7 7 6 5 6 6 6 6 7 8 8 9 10 11 12 13 13 13 14 15 14 14 14 13 12 11 14 18 22 25 28 29 32 32 28 27 28 27 27 22 20 22 20 13 13 16 15 13 14 14 13 10 9 8 6 6 6 5 5 6 8
4 5 7 6 5 4 5 4 5 6 7 7 7 8 9 11 11 12 13 13 14 14 13 13 15 16 17 17 15 16 18 21 25 26 27 29 28 27 25 23 25 26 21 19 20 17 18 19 17 14 13 12 12 10 9 8 7 6 6 5 6 8 10
4 5 7 6 4 4 5 3 4 6 7 6 5 6 8 10 11 11 11 12 13 14 14 15 17 16 18 20 19 19 18 18 22 23 24 26 25 25 25 21 20 24 21 18 19 20 20 19 15 13 12 11 10 9 9 8 6 6 7 7 8 9 11
6 6 7 7 6 6 6 5 6 7 8 5 3 5 7 9 9 10 10 10 11 13 14 15 17 17 17 18 20 22 21 19 22 24 25 27 25 23 24 21 19 20 21 20 21 22 20 17 14 13 11 10 10 10 10 8 6 5 6 7 5 6 11
7 7 8 8 7 6 7 8 8 9 9 5 3 4 6 7 8 8 9 10 10 10 12 13 14 16 16 16 18 22 22 21 22 24 25 26 25 24 25 23 21 21 22 22 21 21 18 15 14 14 13 12 12 11 10 9 7 4 3 7 13 15 16
8 7 8 8 7 6 7 7 9 9 9 8 5 3 3 5 6 7 8 9 9 9 11 12 12 13 14 15 16 18 20 20 21 23 26 26 25 27 26 26 25 24 23 21 20 20 20 19 17 16 15 14 12 11 10 8 7 3 3 11 17 18 16
8 8 8 7 6 6 6 7 9 9 9 9 5 0 2 3 5 6 7 7 7 8 10 11 10 11 11 12 13 12 13 15 17 20 22 24 28 30 29 27 26 25 23 22 21 21 21 22 21 18 16 14 13 12 10 9 9 6 6 12 16 16 15
8 8 8 6 6 7 7 7 8 8 9 9 4 2 1 3 4 5 6 6 6 5 7 9 9 10 10 9 7 3 5 7 10 14 18 22 26 30 31 29 27 27 25 23 22 21 20 22 23 20 18 16 15 13 12 11 10 9 10 11 12 13 13
7 7 6 6 8 8 6 6 7 8 9 8 3 2 1 1 2 4 6 6 6 5 4 5 7 9 10 11 10 7 8 9 9 13 19 21 21 25 28 28 27 28 28 26 24 21 20 22 22 21 20 19 17 15 15 13 11 9 10 11 11 12 12
6 5 5 5 7 6 4 4 7 8 10 8 4 4 1 1 2 4 5 6 7 5 3 2 5 7 9 11 13 12 12 13 13 14 18 20 20 21 24 25 26 28 30 28 24 22 22 21 20 20 21 21 20 18 17 14 12 11 11 11 13 13 13
6 4 4 4 5 3 2 3 8 9 9 7 2 3 2 2 2 2 4 6 7 5 3 1 2 6 8 10 11 12 12 13 14 14 15 18 21 21 21 22 25 28 27 24 23 23 22 20 19 21 22 23 22 21 19 16 15 15 14 14 15 15 15
4 3 4 4 2 0 2 3 8 8 6 5 3 3 5 4 2 2 4 6 6 5 4 3 2 5 7 9 10 11 10 11 13 13 13 15 17 18 19 20 22 25 24 21 22 23 22 20 20 21 22 22 22 20 18 17 17 18 18 17 16 16 16
5 4 4 5 3 2 4 4 6 6 6 7 7 6 5 3 1 2 3 4 5 4 4 5 4 4 7 7 8 9 7 7 10 13 14 14 14 16 17 17 18 19 20 20 21 23 22 19 19 20 21 21 21 20 19 18 18 17 16 16 16 16 16
6 5 3 5 4 4 5 4 4 5 8 10 7 2 3 2 2 3 3 3 4 4 4 5 6 5 6 6 7 8 8 7 9 13 14 14 14 16 17 17 17 15 16 18 20 22 22 19 18 20 21 20 20 20 20 18 16 15 15 15 15 14 14
7 5 5 6 6 5 6 5 6 7 9 10 6 2 3 4 5 4 3 3 3 4 3 4 6 6 6 6 6 8 9 9 11 13 13 12 13 17 18 18 18 16 16 18 19 21 23 21 19 20 21 20 19 18 18 18 16 15 15 15 13 12 11
7 6 6 7 7 6 6 7 7 7 8 8 5 4 4 6 7 6 5 4 2 3 3 3 6 7 7 6 5 7 9 10 11 12 12 13 16 18 19 19 17 16 16 17 18 20 21 20 19 21 21 21 20 18 17 16 15 14 14 12 12 12 11
7 7 8 8 6 6 6 7 8 8 6 5 5 6 7 10 11 8 6 4 3 3 3 2 5 7 7 6 4 5 7 9 12 14 14 17 18 18 19 19 17 16 16 17 18 19 20 20 21 22 21 20 19 18 16 14 13 13 13 12 12 11 10
Wind_Direction
241 246 246 235 228 228 226 224 227 227 222 222 227 226 221 226 239 241 236 237 241 240 237 234 236 231 225 229 227 223 222 222 226 233 243 255 256 260 272 268 256 255 260 262 269 267 208 223 264 256 250 245 242 237 236 251 266 271 262 240 232 239 241
248 252 254 244 228 226 228 227 228 232 231 228 229 229 225 225 231 233 232 235 239 238 236 234 237 234 225 226 226 225 228 230 231 234 240 245 246 255 274 276 259 251 258 252 250 261 281 328 275 271 272 261 247 242 250 261 253 255 271 245 231 251 253
251 253 255 252 238 234 236 232 231 238 237 234 234 232 227 225 228 230 230 231 233 234 235 235 236 235 228 227 230 228 230 234 233 234 240 241 241 251 268 271 254 247 260 252 235 245 268 276 268 258 263 261 263 264 264 261 247 251 278 258 244 268 255
255 255 255 254 247 240 239 236 236 240 238 233 235 235 231 226 224 227 230 229 228 229 235 237 235 235 233 232 234 235 232 232 231 235 239 237 236 244 258 263 254 245 251 249 246 233 205 228 248 229 235 239 252 265 272 272 248 260 306 278 241 222 179
263 260 256 256 255 250 246 245 242 239 237 234 234 234 235 233 225 224 227 227 226 227 231 234 233 232 234 234 235 238 235 230 230 231 232 231 231 235 247 258 253 248 254 246 247 251 233 235 247 217 213 224 254 263 272 293 262 258 300 264 224 203 181
268 266 262 260 260 260 257 254 249 242 240 238 232 231 233 234 230 226 227 225 223 225 228 231 231 229 233 235 234 237 237 232 230 228 226 228 230 230 240 257 250 241 252 251 242 250 252 255 264 252 219 205 212 264 274 272 257 252 245 242 228 198 189
271 272 270 269 265 264 262 258 256 250 247 245 239 237 236 235 233 230 231 231 226 225 228 230 229 228 233 236 233 233 236 237 235 231 231 233 234 231 235 252 250 236 238 243 242 246 248 252 255 256 246 204 196 229 251 229 234 239 220 229 224 186 175
274 279 280 279 273 269 266 262 261 256 253 255 250 244 242 240 238 235 235 237 234 228 226 226 227 228 231 234 234 233 236 240 239 237 237 236 235 233 232 245 250 241 235 235 239 243 243 248 251 251 260 243 199 210 215 203 221 233 215 195 203 187 168
280 288 291 289 284 279 274 269 267 264 262 262 255 245 244 246 247 243 241 243 241 234 229 227 229 231 230 230 233 233 234 239 241 238 237 237 237 234 232 242 246 242 238 236 237 242 242 244 253 255 251 249 243 216 203 184 190 224 219 200 194 181 173
288 292 297 297 298 296 289 282 276 272 271 267 262 256 254 255 258 256 250 248 246 240 235 231 231 233 231 230 233 233 234 238 242 239 235 234 237 234 233 242 244 239 238 238 235 239 242 241 244 248 243 242 245 241 235 193 165 191 200 203 205 187 194
297 296 300 303 303 305 303 297 289 283 280 274 270 268 262 257 261 263 259 254 249 244 241 236 234 235 233 230 230 233 235 236 238 240 238 235 236 233 234 242 243 236 234 236 235 237 239 238 240 240 238 239 241 242 255 232 179 190 192 204 216 203 201
301 300 306 312 313 313 312 305 297 293 289 282 278 274 266 258 260 265 262 259 255 249 245 242 237 236 234 230 229 231 234 234 233 237 238 236 235 233 234 242 243 237 233 232 234 236 235 233 235 234 232 234 235 238 243 237 220 199 194 204 217 216 218
298 299 307 314 319 319 317 314 309 305 298 290 285 280 272 264 264 268 267 265 264 259 255 250 241 236 234 233 231 228 228 230 230 233 234 234 235 233 232 239 241 236 232 232 233 234 232 230 230 229 228 230 228 227 226 223 231 205 196 202 193 190 219
297 297 301 307 312 315 321 327 326 322 318 310 301 290 281 276 272 271 270 269 269 268 264 257 247 240 237 238 237 233 230 229 229 230 230 232 233 232 231 236 238 235 231 229 230 230 227 224 224 224 225 226 222 218 217 219 233 232 200 231 116 157 182
299 298 298 303 309 312 322 331 333 333 331 327 320 307 299 295 287 281 280 276 272 272 269 263 253 242 236 235 235 233 230 228 228 229 229 231 232 232 233 235 236 236 232 228 228 228 225 221 219 219 221 226 224 215 210 214 226 328 39 331 324 302 287
302 300 297 299 304 310 321 329 331 334 335 334 332 326 321 315 302 293 292 287 281 277 273 268 258 246 239 233 227 226 229 230 229 228 229 231 231 231 234 235 234 234 231 227 226 224 221 219 216 214 215 221 227 221 208 207 212 211 204 215 346 340 317
304 303 299 297 301 307 314 321 327 335 339 342 344 340 338 333 322 314 309 301 295 290 286 280 268 255 248 242 232 226 227 230 233 232 231 232 233 233 236 234 232 232 233 229 224 220 217 217 214 210 205 204 214 219 196 184 196 202 189 150 100 46 256
298 296 295 294 297 302 308 316 322 334 346 352 355 353 350 345 337 332 325 314 308 305 303 297 286 264 244 240 241 236 230 231 233 232 232 233 234 237 242 243 234 230 233 233 224 216 212 211 209 203 195 191 196 198 174 163 171 179 177 177 184 186 153
301 303 303 300 299 300 306 316 321 335 352 358 357 356 356 352 344 335 328 324 321 317 314 311 307 290 249 231 232 233 232 233 234 235 236 236 236 236 243 254 246 228 225 234 239 232 222 217 210 198 191 191 191 188 178 176 180 187 195 210 215 200 144
311 316 312 303 300 301 309 322 331 342 351 354 358 360 358 354 349 342 338 336 329 315 305 304 306 302 276 241 231 227 225 230 235 239 240 238 239 238 237 246 249 233 221 226 239 255 247 241 230 202 188 191 191 183 178 180 187 194 198 202 200 186 161
314 315 310 302 301 313 327 330 335 344 345 347 355 2 2 356 350 348 347 342 332 321 309 298 291 289 284 272 255 242 235 235 234 235 237 238 240 239 235 241 246 239 227 222 223 219 210 222 232 212 191 193 192 184 174 172 178 193 203 202 190 182 173
299 299 297 294 303 333 339 333 342 347 337 336 348 356 358 356 352 352 350 344 338 338 333 315 300 292 284 280 276 262 253 247 236 229 233 236 234 231 230 237 240 234 226 218 214 204 194 204 216 210 199 198 194 185 171 164 172 182 189 200 209 197 170
284 280 281 285 298 308 302 309 349 345 328 323 339 347 346 347 350 352 350 346 344 348 348 334 320 307 290 282 280 273 267 258 243 234 232 230 224 220 221 227 231 225 214 199 192 189 190 198 203 201 202 198 188 178 162 159 172 182 187 198 215 205 160
276 278 280 285 290 293 302 323 336 330 322 322 350 1 351 343 345 349 348 348 348 351 354 344 331 320 303 286 276 271 269 261 248 240 236 231 221 209 208 212 213 206 194 181 174 174 183 194 195 194 190 179 171 164 154 153 156 171 191 182 144 119 121
269 278 287 289 291 303 323 331 326 319 317 323 356 14 360 344 341 346 347 348 348 351 356 350 338 330 317 298 279 265 260 259 251 241 237 232 216 200 195 194 188 180 174 175 172 167 168 172 172 170 161 153 153 150 146 144 137 137 169 140 111 95 100
269 273 280 285 294 309 316 316 317 316 312 313 327 360 7 350 339 340 343 347 346 350 0 1 352 344 331 314 295 269 253 254 252 240 234 225 202 186 182 175 167 162 162 168 168 163 162 158 150 146 144 142 139 136 135 131 127 126 131 131 120 105 106
268 270 277 287 303 315 319 320 318 312 300 295 295 25 53 11 347 335 336 341 338 344 0 9 9 4 355 336 314 282 250 248 245 228 217 206 186 174 171 168 161 155 155 159 158 155 153 145 137 134 135 133 125 123 126 126 128 139 141 137 131 119 122
263 271 285 306 318 314 320 327 316 305 297 290 266 169 354 338 335 324 321 326 326 337 1 14 22 26 28 20 353 300 204 211 220 197 179 176 172 166 165 165 159 152 149 150 149 148 144 136 133 133 128 120 116 116 118 118 124 136 139 138 136 129 128
270 288 297 306 313 316 330 334 315 301 291 280 237 150 279 279 291 305 311 318 320 327 354 19 35 43 49 54 54 70 105 119 139 150 152 157 159 157 156 156 151 147 146 145 144 148 148 141 134 130 122 114 114 113 106 103 110 122 126 123 122 123 122
264 294 305 308 317 331 357 334 303 287 275 262 204 144 148 212 258 300 311 309 306 310 323 12 56 62 64 69 71 73 83 91 97 111 130 142 146 147 150 150 148 146 144 143 143 145 148 143 132 124 120 116 115 112 106 106 111 112 114 116 118 120 118
257 279 302 313 321 344 29 319 294 284 278 274 218 149 202 232 246 295 305 296 290 290 287 281 92 86 82 80 80 81 86 91 90 92 107 126 134 136 137 142 147 147 144 142 141 140 142 141 132 125 125 122 118 115 113 117 119 116 116 118 118 118 116
229 246 273 293 305 105 127 288 299 301 285 274 271 235 226 212 198 265 291 294 293 287 266 241 172 120 108 99 94 93 94 101 103 101 102 114 126 130 132 138 147 149 146 143 140 139 140 137 131 129 129 124 120 122 126 128 126 121 119 117 115 114 112
194 213 258 288 288 184 177 239 289 306 282 261 255 236 215 187 178 251 276 290 298 292 261 241 218 155 130 121 113 106 101 109 119 118 113 115 124 130 133 138 144 149 149 146 141 139 140 136 130 129 130 127 127 130 131 127 122 118 117 116 114 110 105
175 186 234 278 266 202 168 196 246 261 260 263 264 216 158 171 229 233 244 271 292 299 269 242 228 186 142 134 140 134 123 125 137 134 122 117 122 127 130 133 136 142 149 147 142 140 140 138 133 133 135 136 134 133 131 128 127 127 126 121 114 107 103
182 195 217 244 246 212 174 192 228 241 249 257 261 209 170 222 233 220 220 243 280 308 286 240 226 201 147 130 152 158 146 142 145 138 126 122 127 129 130 129 129 134 144 147 143 140 139 140 140 140 140 137 135 135 136 136 136 136 131 125 121 120 118
186 197 202 214 228 220 196 197 205 225 250 257 243 211 208 232 234 217 211 219 248 302 296 233 213 193 151 125 148 172 170 167 163 154 144 141 140 136 133 131 129 132 138 141 140 138 137 138 139 141 141 139 138 139 139 140 144 145 141 137 137 137 133
177 183 187 195 215 227 218 205 196 204 227 242 231 217 213 226 230 219 203 200 211 268 288 219 193 176 146 121 130 178 187 181 176 172 160 151 148 144 139 135 134 135 136 135 135 134 132 133 136 139 140 139 139 141 144 152 155 147 139 135 131 127 124